WMT113 LFPG-EDDB

Flight info

Callsign WMT113
Flight time 1h 22m
Altitude 35000
Route RANUX DCT VALEK DCT LIPNI UN858 LIMGO DCT BITBU Z140 ODVUX DCT MASEK T278 KLF KLF1R
Aircraft A320/M-SDE3FGHIRWY/LB1

Departure

Time 2026-05-05 13:54
Airport Charles de Gaulle International Airport (LFPG)

Arrival

Time 2026-05-05 15:17
Airport Berlin Brandenburg Airport (EDDB)
Time Latitude Longitude Altitude Speed Heading
2026-05-05 13:09 49.01357 2.54593 354 ft 0 kts 286°
2026-05-05 13:35 49.01356 2.54598 362 ft 2 kts 286°
2026-05-05 13:35 49.01351 2.54623 362 ft 2 kts 286°
2026-05-05 13:36 49.01346 2.54647 356 ft 2 kts 286°
2026-05-05 13:36 49.01342 2.54673 361 ft 3 kts 289°
2026-05-05 13:36 49.01333 2.54696 360 ft 3 kts 326°
2026-05-05 13:36 49.01317 2.54707 362 ft 3 kts 356°
2026-05-05 13:37 49.01304 2.54707 360 ft 0 kts 21°
2026-05-05 13:43 49.01307 2.54708 355 ft 1 kts 21°
2026-05-05 13:44 49.01328 2.54720 353 ft 6 kts 18°
2026-05-05 13:44 49.01388 2.54741 355 ft 12 kts
2026-05-05 13:44 49.01497 2.54743 358 ft 17 kts 353°
2026-05-05 13:44 49.01607 2.54692 357 ft 16 kts 335°
2026-05-05 13:45 49.01695 2.54596 356 ft 15 kts 317°
2026-05-05 13:45 49.01759 2.54473 357 ft 14 kts 302°
2026-05-05 13:45 49.01797 2.54338 357 ft 14 kts 288°
2026-05-05 13:45 49.01812 2.54181 354 ft 16 kts 268°
2026-05-05 13:46 49.01805 2.54003 354 ft 18 kts 264°
2026-05-05 13:46 49.01796 2.53792 354 ft 22 kts 266°
2026-05-05 13:46 49.01781 2.53552 354 ft 24 kts 266°
2026-05-05 13:46 49.01764 2.53284 354 ft 27 kts 264°
2026-05-05 13:47 49.01749 2.52994 354 ft 27 kts 265°
2026-05-05 13:47 49.01735 2.52714 354 ft 26 kts 265°
2026-05-05 13:47 49.01721 2.52459 354 ft 22 kts 261°
2026-05-05 13:47 49.01708 2.52234 354 ft 21 kts 265°
2026-05-05 13:48 49.01749 2.52117 361 ft 6 kts 334°
2026-05-05 13:48 49.01772 2.52117 356 ft 5 kts
2026-05-05 13:48 49.01827 2.52122 355 ft 11 kts
2026-05-05 13:48 49.01932 2.52117 361 ft 19 kts 356°
2026-05-05 13:49 49.01963 2.52114 359 ft 0 kts 356°
2026-05-05 13:50 49.01964 2.52114 358 ft 2 kts 356°
2026-05-05 13:50 49.02032 2.52108 356 ft 15 kts 359°
2026-05-05 13:51 49.02108 2.52190 354 ft 14 kts 77°
2026-05-05 13:51 49.02110 2.52206 358 ft 0 kts 84°
2026-05-05 13:53 49.02115 2.52313 354 ft 37 kts 87°
2026-05-05 13:54 49.02155 2.53035 359 ft 98 kts 85°
2026-05-05 13:54 49.02224 2.54295 356 ft 142 kts 85°
2026-05-05 13:54 49.02339 2.55941 703 ft 153 kts 82°
2026-05-05 13:54 49.02385 2.57550 1343 ft 158 kts 83°
2026-05-05 13:55 49.02452 2.59217 2021 ft 157 kts 80°
2026-05-05 13:55 49.02550 2.60954 2531 ft 176 kts 83°
2026-05-05 13:55 49.02667 2.62943 3055 ft 201 kts 82°
2026-05-05 13:55 49.02798 2.65195 3617 ft 226 kts 84°
2026-05-05 13:56 49.02937 2.67707 4149 ft 248 kts 84°
2026-05-05 13:56 49.03078 2.70368 4966 ft 254 kts 84°
2026-05-05 13:56 49.03218 2.73076 5903 ft 259 kts 85°
2026-05-05 13:56 49.03353 2.75836 6790 ft 264 kts 84°
2026-05-05 13:57 49.03487 2.78647 7672 ft 267 kts 85°
2026-05-05 13:57 49.03619 2.81485 8503 ft 270 kts 85°
2026-05-05 13:57 49.03754 2.84360 9316 ft 274 kts 85°
2026-05-05 13:57 49.03892 2.87275 10057 ft 279 kts 85°
2026-05-05 13:58 49.04040 2.90338 10302 ft 302 kts 85°
2026-05-05 13:58 49.04200 2.93652 10454 ft 325 kts 84°
2026-05-05 13:58 49.04421 2.97157 10821 ft 338 kts 83°
2026-05-05 13:58 49.04686 3.00735 11424 ft 342 kts 83°
2026-05-05 13:59 49.05261 3.08029 12698 ft 350 kts 83°
2026-05-05 13:59 49.05548 3.11734 13349 ft 354 kts 84°
2026-05-05 14:00 49.06106 3.19269 14508 ft 361 kts 84°
2026-05-05 14:00 49.06287 3.21790 14880 ft 363 kts 85°
2026-05-05 14:00 49.06651 3.26946 15607 ft 368 kts 85°
2026-05-05 14:00 49.06924 3.30839 16150 ft 371 kts 85°
2026-05-05 14:01 49.07198 3.34778 16706 ft 375 kts 85°
2026-05-05 14:01 49.07475 3.38749 17274 ft 378 kts 85°
2026-05-05 14:01 49.07753 3.42754 17916 ft 382 kts 85°
2026-05-05 14:01 49.08036 3.46810 18468 ft 386 kts 85°
2026-05-05 14:02 49.08320 3.50894 18750 ft 388 kts 85°
2026-05-05 14:02 49.08604 3.55013 19201 ft 392 kts 85°
2026-05-05 14:02 49.08890 3.59160 19725 ft 395 kts 85°
2026-05-05 14:02 49.09179 3.63339 20221 ft 398 kts 86°
2026-05-05 14:03 49.09468 3.67558 20693 ft 401 kts 86°
2026-05-05 14:03 49.09756 3.71808 21154 ft 404 kts 86°
2026-05-05 14:03 49.10044 3.76099 21605 ft 407 kts 86°
2026-05-05 14:03 49.10331 3.80420 22052 ft 411 kts 86°
2026-05-05 14:04 49.10611 3.84707 22491 ft 413 kts 86°
2026-05-05 14:04 49.10897 3.89091 22938 ft 417 kts 86°
2026-05-05 14:04 49.11184 3.93507 23378 ft 420 kts 86°
2026-05-05 14:04 49.11473 3.97958 23738 ft 422 kts 86°
2026-05-05 14:05 49.11763 4.02438 24115 ft 425 kts 86°
2026-05-05 14:05 49.12052 4.06935 24539 ft 427 kts 86°
2026-05-05 14:05 49.12342 4.11462 25012 ft 430 kts 86°
2026-05-05 14:05 49.12634 4.16022 25415 ft 433 kts 86°
2026-05-05 14:06 49.12924 4.20604 25809 ft 435 kts 86°
2026-05-05 14:06 49.13209 4.25209 26192 ft 436 kts 86°
2026-05-05 14:06 49.13492 4.29834 26602 ft 438 kts 87°
2026-05-05 14:06 49.13863 4.34472 27001 ft 442 kts 81°
2026-05-05 14:07 49.14676 4.39020 27397 ft 447 kts 72°
2026-05-05 14:07 49.15868 4.43433 27797 ft 450 kts 70°
2026-05-05 14:07 49.17082 4.47841 28260 ft 450 kts 70°
2026-05-05 14:07 49.18282 4.52247 28758 ft 448 kts 70°
2026-05-05 14:08 49.19470 4.56643 29261 ft 447 kts 70°
2026-05-05 14:08 49.20650 4.61027 29752 ft 446 kts 70°
2026-05-05 14:08 49.21827 4.65415 30186 ft 445 kts 70°
2026-05-05 14:08 49.22997 4.69784 30618 ft 444 kts 70°
2026-05-05 14:09 49.24166 4.74149 31053 ft 443 kts 71°
2026-05-05 14:09 49.25318 4.78452 31480 ft 442 kts 71°
2026-05-05 14:09 49.26481 4.82790 31930 ft 440 kts 71°
2026-05-05 14:09 49.27645 4.87129 32381 ft 439 kts 71°
2026-05-05 14:10 49.28801 4.91452 32831 ft 438 kts 71°
2026-05-05 14:10 49.29950 4.95763 33286 ft 436 kts 71°
2026-05-05 14:10 49.31088 5.00059 33795 ft 434 kts 71°
2026-05-05 14:10 49.32220 5.04345 34137 ft 434 kts 71°
2026-05-05 14:11 49.33351 5.08631 34431 ft 435 kts 71°
2026-05-05 14:11 49.34490 5.12946 34695 ft 436 kts 71°
2026-05-05 14:11 49.35631 5.17274 34804 ft 440 kts 71°
2026-05-05 14:11 49.36785 5.21663 34825 ft 446 kts 71°
2026-05-05 14:12 49.39123 5.30540 34827 ft 450 kts 71°
2026-05-05 14:12 49.41460 5.39468 34827 ft 451 kts 71°
2026-05-05 14:13 49.43787 5.48418 34830 ft 451 kts 72°
2026-05-05 14:13 49.46110 5.57384 34828 ft 452 kts 72°
2026-05-05 14:14 49.48428 5.66372 34830 ft 452 kts 72°
2026-05-05 14:14 49.50746 5.75374 34829 ft 452 kts 72°
2026-05-05 14:15 49.53045 5.84489 34856 ft 464 kts 73°
2026-05-05 14:15 49.55276 5.93679 34838 ft 454 kts 73°
2026-05-05 14:16 49.57492 6.02763 34834 ft 453 kts 73°
2026-05-05 14:16 49.59725 6.11835 34839 ft 453 kts 73°
2026-05-05 14:17 49.62075 6.20861 34837 ft 456 kts 66°
2026-05-05 14:17 49.65924 6.28738 34833 ft 467 kts 46°
2026-05-05 14:18 49.71357 6.34327 34825 ft 474 kts 30°
2026-05-05 14:18 49.77225 6.39024 34820 ft 475 kts 30°
2026-05-05 14:19 49.83094 6.43773 34819 ft 476 kts 30°
2026-05-05 14:19 49.88969 6.48548 34817 ft 477 kts 30°
2026-05-05 14:20 49.93855 6.52527 34820 ft 478 kts 30°
2026-05-05 14:20 49.99299 6.58275 34817 ft 471 kts 46°
2026-05-05 14:21 50.03700 6.65749 34816 ft 469 kts 53°
2026-05-05 14:21 50.07409 6.73964 34813 ft 460 kts 69°
2026-05-05 14:22 50.08918 6.80149 34812 ft 453 kts 81°
2026-05-05 14:22 50.09361 6.83308 34811 ft 450 kts 86°
2026-05-05 14:22 50.10636 6.92843 34810 ft 458 kts 73°
2026-05-05 14:23 50.13165 7.01998 34812 ft 462 kts 69°
2026-05-05 14:23 50.16032 7.10978 34812 ft 464 kts 67°
2026-05-05 14:24 50.18965 7.19937 34813 ft 464 kts 68°
2026-05-05 14:24 50.21823 7.28977 34814 ft 464 kts 69°
2026-05-05 14:25 50.24628 7.38065 34811 ft 465 kts 69°
2026-05-05 14:25 50.27435 7.47176 34804 ft 466 kts 69°
2026-05-05 14:26 50.30246 7.56306 34812 ft 466 kts 69°
2026-05-05 14:26 50.33065 7.65459 34810 ft 467 kts 69°
2026-05-05 14:27 50.35881 7.74639 34810 ft 468 kts 69°
2026-05-05 14:27 50.38686 7.83838 34807 ft 468 kts 69°
2026-05-05 14:28 50.41489 7.93076 34814 ft 470 kts 69°
2026-05-05 14:28 50.44291 8.02335 34812 ft 470 kts 69°
2026-05-05 14:29 50.47070 8.11555 34813 ft 470 kts 69°
2026-05-05 14:29 50.49691 8.20271 34810 ft 471 kts 68°
2026-05-05 14:30 50.52409 8.29336 34807 ft 471 kts 68°
2026-05-05 14:30 50.55192 8.38661 34804 ft 472 kts 69°
2026-05-05 14:31 50.57976 8.48022 34803 ft 473 kts 69°
2026-05-05 14:31 50.60762 8.57431 34796 ft 474 kts 69°
2026-05-05 14:32 50.63544 8.66856 34795 ft 475 kts 69°
2026-05-05 14:32 50.66330 8.76326 34797 ft 476 kts 69°
2026-05-05 14:33 50.69106 8.85816 34801 ft 477 kts 69°
2026-05-05 14:33 50.71877 8.95349 34797 ft 478 kts 69°
2026-05-05 14:34 50.74654 9.04907 34802 ft 479 kts 69°
2026-05-05 14:34 50.77418 9.14478 34807 ft 479 kts 69°
2026-05-05 14:35 50.80177 9.24080 34822 ft 480 kts 69°
2026-05-05 14:35 50.82929 9.33675 34815 ft 479 kts 69°
2026-05-05 14:36 50.85678 9.43281 34812 ft 479 kts 69°
2026-05-05 14:36 50.88416 9.52900 34811 ft 479 kts 69°
2026-05-05 14:37 50.91140 9.62529 34815 ft 479 kts 69°
2026-05-05 14:37 50.93867 9.72195 34811 ft 480 kts 69°
2026-05-05 14:38 50.96581 9.81862 34817 ft 480 kts 69°
2026-05-05 14:38 50.99296 9.91553 34813 ft 481 kts 69°
2026-05-05 14:39 51.02000 10.01270 34816 ft 481 kts 69°
2026-05-05 14:39 51.04695 10.11008 34819 ft 482 kts 69°
2026-05-05 14:40 51.07391 10.20770 34819 ft 482 kts 69°
2026-05-05 14:40 51.10074 10.30485 34825 ft 483 kts 69°
2026-05-05 14:41 51.12767 10.40284 34827 ft 483 kts 69°
2026-05-05 14:41 51.15451 10.50102 34836 ft 484 kts 69°
2026-05-05 14:42 51.18115 10.59957 34845 ft 484 kts 69°
2026-05-05 14:42 51.20792 10.69876 34846 ft 484 kts 69°
2026-05-05 14:43 51.23460 10.79748 34845 ft 485 kts 69°
2026-05-05 14:43 51.26102 10.89576 34844 ft 485 kts 69°
2026-05-05 14:44 51.28740 10.99502 34849 ft 486 kts 69°
2026-05-05 14:44 51.31391 11.09436 34853 ft 486 kts 69°
2026-05-05 14:45 51.34033 11.19407 34852 ft 487 kts 69°
2026-05-05 14:45 51.36663 11.29396 34857 ft 488 kts 69°
2026-05-05 14:46 51.39293 11.39418 34861 ft 488 kts 69°
2026-05-05 14:46 51.41914 11.49454 34859 ft 489 kts 69°
2026-05-05 14:47 51.44536 11.59518 34858 ft 489 kts 69°
2026-05-05 14:47 51.47149 11.69586 34861 ft 489 kts 69°
2026-05-05 14:48 51.49753 11.79682 34864 ft 490 kts 69°
2026-05-05 14:48 51.52347 11.89792 34863 ft 490 kts 69°
2026-05-05 14:49 51.54932 11.99916 34868 ft 490 kts 69°
2026-05-05 14:49 51.57509 12.10040 34872 ft 490 kts 69°
2026-05-05 14:50 51.60075 12.20181 34888 ft 487 kts 69°
2026-05-05 14:50 51.62580 12.30101 34877 ft 465 kts 69°
2026-05-05 14:51 51.63794 12.34914 34141 ft 469 kts 69°
2026-05-05 14:51 51.65039 12.39878 32477 ft 488 kts 69°
2026-05-05 14:51 51.66326 12.45033 30926 ft 502 kts 69°
2026-05-05 14:51 51.67633 12.50284 29647 ft 508 kts 70°
2026-05-05 14:52 51.68936 12.55514 29044 ft 498 kts 69°
2026-05-05 14:52 51.70221 12.60683 28497 ft 497 kts 70°
2026-05-05 14:52 51.71507 12.65869 27960 ft 497 kts 69°
2026-05-05 14:52 51.72784 12.71034 27426 ft 493 kts 69°
2026-05-05 14:53 51.74045 12.76153 26907 ft 489 kts 69°
2026-05-05 14:53 51.75292 12.81218 26402 ft 484 kts 69°
2026-05-05 14:53 51.76529 12.86251 25897 ft 480 kts 69°
2026-05-05 14:53 51.77802 12.91210 25400 ft 476 kts 65°
2026-05-05 14:54 51.79428 12.95850 24917 ft 473 kts 59°
2026-05-05 14:54 51.81129 13.00374 24432 ft 469 kts 59°
2026-05-05 14:54 51.82816 13.04864 23976 ft 465 kts 59°
2026-05-05 14:54 51.84492 13.09323 23516 ft 462 kts 59°
2026-05-05 14:55 51.86151 13.13744 22982 ft 458 kts 59°
2026-05-05 14:55 51.87792 13.18131 22441 ft 454 kts 59°
2026-05-05 14:55 51.89421 13.22495 21909 ft 451 kts 59°
2026-05-05 14:55 51.91036 13.26834 21386 ft 448 kts 59°
2026-05-05 14:56 51.92635 13.31137 20874 ft 444 kts 59°
2026-05-05 14:56 51.94224 13.35422 20367 ft 441 kts 59°
2026-05-05 14:56 51.95799 13.39674 19870 ft 438 kts 59°
2026-05-05 14:56 51.97352 13.43882 19384 ft 435 kts 59°
2026-05-05 14:57 51.99114 13.47830 18899 ft 428 kts 43°
2026-05-05 14:57 52.01549 13.50464 18430 ft 417 kts 19°
2026-05-05 14:57 52.04334 13.51348 17941 ft 403 kts 355°
2026-05-05 14:57 52.06998 13.50403 17409 ft 387 kts 331°
2026-05-05 14:58 52.09108 13.47870 16823 ft 374 kts 308°
2026-05-05 14:58 52.10388 13.44279 15802 ft 375 kts 285°
2026-05-05 14:58 52.11079 13.40206 14741 ft 371 kts 283°
2026-05-05 14:58 52.11752 13.36081 13367 ft 373 kts 283°
2026-05-05 14:59 52.12407 13.32052 11942 ft 373 kts 283°
2026-05-05 14:59 52.13363 13.28142 10473 ft 376 kts 299°
2026-05-05 14:59 52.14776 13.24562 8941 ft 376 kts 303°
2026-05-05 14:59 52.16544 13.21488 7783 ft 369 kts 324°
2026-05-05 15:00 52.18774 13.19690 7293 ft 346 kts 337°
2026-05-05 15:00 52.20250 13.18737 7134 ft 328 kts 337°
2026-05-05 15:00 52.22913 13.17021 6943 ft 295 kts 337°
2026-05-05 15:00 52.24757 13.15870 6843 ft 272 kts 342°
2026-05-05 15:01 52.26563 13.15786 6705 ft 256 kts 17°
2026-05-05 15:01 52.27597 13.16704 6555 ft 249 kts 42°
2026-05-05 15:01 52.28449 13.19088 6229 ft 247 kts 81°
2026-05-05 15:01 52.28565 13.21872 5909 ft 247 kts 83°
2026-05-05 15:02 52.29093 13.24513 5592 ft 246 kts 65°
2026-05-05 15:02 52.29790 13.27062 5322 ft 245 kts 67°
2026-05-05 15:02 52.30419 13.29594 5082 ft 243 kts 68°
2026-05-05 15:02 52.31041 13.32193 4837 ft 242 kts 68°
2026-05-05 15:03 52.31642 13.34704 4559 ft 240 kts 68°
2026-05-05 15:03 52.32242 13.37215 4367 ft 233 kts 68°
2026-05-05 15:03 52.32812 13.39600 4158 ft 218 kts 68°
2026-05-05 15:03 52.33347 13.41837 4008 ft 206 kts 68°
2026-05-05 15:04 52.33865 13.44002 4008 ft 204 kts 68°
2026-05-05 15:04 52.34379 13.46159 4015 ft 204 kts 68°
2026-05-05 15:04 52.34896 13.48328 4015 ft 204 kts 68°
2026-05-05 15:04 52.35424 13.50547 4016 ft 217 kts 68°
2026-05-05 15:05 52.35853 13.55372 4003 ft 222 kts 112°
2026-05-05 15:05 52.34923 13.57348 4013 ft 222 kts 147°
2026-05-05 15:05 52.33480 13.58084 4225 ft 221 kts 182°
2026-05-05 15:06 52.32036 13.57361 4489 ft 219 kts 216°
2026-05-05 15:06 52.30865 13.55772 4742 ft 219 kts 224°
2026-05-05 15:06 52.29760 13.54045 4943 ft 220 kts 225°
2026-05-05 15:06 52.28661 13.52304 5001 ft 220 kts 225°
2026-05-05 15:07 52.27562 13.50565 5001 ft 219 kts 225°
2026-05-05 15:07 52.26468 13.48831 5006 ft 219 kts 225°
2026-05-05 15:07 52.25469 13.46957 5002 ft 218 kts 241°
2026-05-05 15:07 52.24831 13.44724 4822 ft 216 kts 249°
2026-05-05 15:08 52.24291 13.42431 4511 ft 217 kts 250°
2026-05-05 15:08 52.23763 13.40125 4207 ft 217 kts 250°
2026-05-05 15:08 52.23233 13.37818 3916 ft 217 kts 250°
2026-05-05 15:08 52.22701 13.35512 3614 ft 217 kts 250°
2026-05-05 15:09 52.22166 13.33205 3357 ft 217 kts 250°
2026-05-05 15:09 52.21630 13.30910 3083 ft 216 kts 250°
2026-05-05 15:09 52.21094 13.28626 2987 ft 216 kts 250°
2026-05-05 15:09 52.20550 13.26330 3006 ft 218 kts 250°
2026-05-05 15:10 52.20000 13.24025 3002 ft 218 kts 250°
2026-05-05 15:10 52.19514 13.21687 3007 ft 217 kts 264°
2026-05-05 15:10 52.19731 13.19325 3001 ft 212 kts 300°
2026-05-05 15:10 52.20738 13.17642 2998 ft 210 kts 334°
2026-05-05 15:11 52.22107 13.16788 3000 ft 211 kts 344°
2026-05-05 15:11 52.23515 13.16118 3009 ft 211 kts 345°
2026-05-05 15:11 52.24934 13.15478 3005 ft 212 kts 346°
2026-05-05 15:11 52.26375 13.15424 3004 ft 210 kts 21°
2026-05-05 15:12 52.27442 13.16960 3006 ft 209 kts 64°
2026-05-05 15:12 52.27921 13.19136 3003 ft 200 kts 69°
2026-05-05 15:12 52.28410 13.21243 3021 ft 194 kts 68°
2026-05-05 15:12 52.28879 13.23200 3004 ft 176 kts 68°
2026-05-05 15:13 52.29303 13.24964 2934 ft 165 kts 67°
2026-05-05 15:13 52.29719 13.26690 2771 ft 162 kts 67°
2026-05-05 15:13 52.30126 13.28385 2560 ft 157 kts 66°
2026-05-05 15:13 52.30518 13.30017 2361 ft 151 kts 66°
2026-05-05 15:14 52.30895 13.31590 2193 ft 144 kts 66°
2026-05-05 15:14 52.31257 13.33096 1987 ft 140 kts 67°
2026-05-05 15:14 52.31611 13.34575 1802 ft 139 kts 66°
2026-05-05 15:14 52.31964 13.36045 1617 ft 139 kts 66°
2026-05-05 15:15 52.32314 13.37510 1432 ft 138 kts 67°
2026-05-05 15:15 52.32663 13.38967 1235 ft 137 kts 66°
2026-05-05 15:15 52.33011 13.40423 1044 ft 137 kts 66°
2026-05-05 15:15 52.33357 13.41874 849 ft 137 kts 67°
2026-05-05 15:16 52.33702 13.43317 662 ft 136 kts 68°
2026-05-05 15:16 52.34046 13.44756 471 ft 134 kts 67°
2026-05-05 15:16 52.34390 13.46183 314 ft 134 kts 68°
2026-05-05 15:16 52.34719 13.47597 182 ft 124 kts 69°
2026-05-05 15:17 52.34994 13.48757 161 ft 89 kts 69°
2026-05-05 15:17 52.35157 13.49434 162 ft 39 kts 68°
2026-05-05 15:17 52.35261 13.49809 157 ft 33 kts 56°
2026-05-05 15:17 52.35362 13.49982 154 ft 0 kts 40°
2026-05-05 15:18 52.35365 13.49986 154 ft 2 kts 40°
2026-05-05 15:19 52.35389 13.50020 154 ft 7 kts 40°
2026-05-05 15:19 52.35444 13.50091 154 ft 13 kts 36°
2026-05-05 15:19 52.35533 13.50204 155 ft 18 kts 39°
2026-05-05 15:19 52.35611 13.50364 156 ft 19 kts 64°
2026-05-05 15:20 52.35637 13.50473 156 ft 10 kts 65°
2026-05-05 15:20 52.35656 13.50543 157 ft 0 kts 68°
2026-05-05 15:20 52.35657 13.50550 157 ft 2 kts 68°
2026-05-05 15:20 52.35665 13.50584 158 ft 5 kts 70°
2026-05-05 15:21 52.35680 13.50653 158 ft 8 kts 71°
2026-05-05 15:21 52.35740 13.50690 154 ft 13 kts 353°
2026-05-05 15:21 52.35836 13.50629 154 ft 16 kts 338°
2026-05-05 15:21 52.35933 13.50568 153 ft 14 kts 340°
2026-05-05 15:22 52.35976 13.50521 153 ft 4 kts 262°
2026-05-05 15:22 52.35974 13.50458 152 ft 7 kts 286°
2026-05-05 15:22 52.35987 13.50380 153 ft 6 kts 248°
2026-05-05 15:22 52.35986 13.50377 153 ft 0 kts 236°